Location: Manitoulin Island
(45.7026°N, 82.0372°W)
Time: 05:46:28
(UTC-04:00)

ISS - Visible Passes

Search period start: 21 October 2019 00:00
Search period end: 31 October 2019 00:00
Orbit: 411 x 421 km, 51.6° (Epoch: 21 October)

Date Brightness Start Highest point End Pass type
(mag) Time Alt. Az. Time Alt. Az. Time Alt. Az.
24 Oct -1.5 07:00:05 10° SSW 07:02:53 25° SE 07:05:41 10° E visible
25 Oct -0.9 06:12:24 10° S 06:14:28 15° SE 06:16:32 10° E visible
26 Oct -3.2 06:58:53 10° SW 07:02:12 59° SSE 07:05:32 10° ENE visible
27 Oct -2.4 06:12:29 27° S 06:13:40 36° SE 06:16:47 10° ENE visible
28 Oct -1.1 05:26:17 19° ESE 05:26:17 19° ESE 05:27:52 10° E visible
28 Oct -3.7 06:59:12 17° WSW 07:01:39 64° NNW 07:05:00 10° ENE visible
29 Oct -3.9 06:12:53 82° SSW 06:12:59 86° SSE 06:16:22 10° ENE visible
30 Oct -1.1 05:26:26 20° ENE 05:26:26 20° ENE 05:27:40 10° ENE visible
30 Oct -3.0 06:59:20 20° WNW 07:01:13 38° NNW 07:04:23 10° NE visible
